Regional Weather Roundup
Issued by NWS Sterling, VA

Home | Current Version | Previous Version | Graphics & Text | Print | Product List | Glossary On
Versions: 1 2 3 4 5 6 7 8 9 10 11 12 13 14 15 16 17 18 19 20 21 22 23 24 25 26 27 28 29 30 31 32 33 34 35 36 37 38 39 40 41 42 43 44 45 46 47 48 49 50
000
ASUS41 KLWX 240311
RWRLWX

REGIONAL WEATHER ROUNDUP
NATIONAL WEATHER SERVICE BALTIMORE MD/WASHINGTON DC
1100 PM EDT SUN APR 23 2017

Note: "FAIR" indicates few or no clouds below 12,000 feet
with no significant weather and/or obstructions to visibility.
 TC=TEMPERATURE CELSIUS

 * =Non NWS site. Station does not report precipitation (e.g. rain,
    snow, etc.), thunder, or fog.

DCZ001-MDZ009-015-VAZ040>042-051-053>054-240400-
WASHINGTON METRO

CITY           SKY/WX    TMP DP  RH WIND       PRES   REMARKS
WASHINGTON NAT CLOUDY    58  46  64 E5        30.10F
DULLES         CLOUDY    54  44  69 CALM      30.10S
ANDREWS AFB    CLOUDY    53  45  74 NE3       30.08F
FT BELVOIR     CLOUDY    52  48  88 CALM      30.09F
QUANTICO       CLOUDY    57  49  74 E9        30.11S
COLLEGE PARK*  CLOUDY    52  47  84 CALM      30.09F
LEESBURG*      PTCLDY    55  46  71 CALM      30.11S
MANASSAS*        N/A     54  46  74 CALM      30.10F

$$

MDZ006>007-011-014-240400-
BALTIMORE METRO

CITY           SKY/WX    TMP DP  RH WIND       PRES   REMARKS
BWI AIRPORT    CLOUDY    54  48  80 CALM      30.10S
MD SCIENCE CTR   N/A     59  44  57 MISG      30.11S
MARTIN STATE   CLOUDY    55  50  82 E6        30.12F
ANNAPOLIS      CLOUDY    58  50  75 E7        30.09F
FORT MEADE*    PTCLDY    50  46  87 CALM      30.12F

$$

MDZ012-015-019>023-240400-
MARYLAND EASTERN SHORE

CITY           SKY/WX    TMP DP  RH WIND       PRES   REMARKS
OCEAN CITY     CLOUDY    52  47  83 E9        30.11F
SALISBURY      LGT RAIN  50  48  93 E5        30.11F
BAY BRIDGE AP* CLOUDY    54  46  76 E5        30.11S
CAMBRIDGE*     CLOUDY    52  46  82 E3        30.11S
EASTON*        PTCLDY    54  46  74 E5        30.15S

$$

MDZ017>025-240400-
SOUTHERN MARYLAND

CITY           SKY/WX    TMP DP  RH WIND       PRES   REMARKS
PATUXENT RIVER CLOUDY    54  49  83 E10       30.10S
ST INIGOES     CLOUDY    54  47  77 E6        30.09S
LEONARDTOWN*   CLOUDY    54  43  66 E5        30.11F

$$

MDZ003>005-240400-
NORTH CENTRAL MARYLAND

CITY           SKY/WX    TMP DP  RH WIND       PRES   REMARKS
FREDERICK*     PTCLDY    52  52 100 CALM      30.13F
HAGERSTOWN APT CLOUDY    54  44  69 S6        30.10R
WESTMINSTER*   CLOUDY    52  45  76 CALM      30.10F

$$

MDZ501>502-240400-
WESTERN MARYLAND

CITY           SKY/WX    TMP DP  RH WIND       PRES   REMARKS
OAKLAND*       MOCLDY    43  36  75 E10       30.05F
CUMBERLAND*    PTCLDY    52  41  66 CALM      30.12F

$$

VAZ025>031-240400-
SHENANDOAH VALLEY

CITY           SKY/WX    TMP DP  RH WIND       PRES   REMARKS
WINCHESTER*    MOCLDY    46  43  87 CALM      30.10R
FRONT ROYAL*   PTCLDY    52  45  76 CALM      30.09R
LURAY*         LGT RAIN  52  45  76 N5        30.09R
NEW MARKET*    MOCLDY    50  44  79 CALM      30.08S
STAUNTON*      RAIN      49  44  84 CALM      30.11R
WAYNESBORO*    CLOUDY    47  47 100 CALM      30.09S

$$

WVZ021-048>050-054>055-240400-
EASTERN WEST VIRGINIA PANHANDLE

CITY           SKY/WX    TMP DP  RH WIND       PRES   REMARKS
MARTINSBURG    PTCLDY    51  45  79 CALM      30.10R
PETERSBURG*    CLOUDY    50  46  87 CALM      30.09S

$$

VAZ036>039-050-240400-
CENTRAL FOOTHILLS

CITY           SKY/WX    TMP DP  RH WIND       PRES   REMARKS
CHARLOTTESVILL LGT RAIN  52  48  86 CALM      30.09R
CULPEPER*      CLOUDY    52  50  93 CALM      30.11R
ORANGE*        LGT RAIN  50  48  93 CALM      30.10R
GORDONSVILLE*  CLOUDY    51  50  98 CALM      30.09S
WARRENTON*     CLOUDY    52  48  86 CALM      30.09S

$$

VAZ055>057-240400-
NORTH AND CENTRAL PIEDMONT

CITY           SKY/WX    TMP DP  RH WIND       PRES   REMARKS
FREDERICKSBRG* CLOUDY    54  52  93 CALM      30.09S
STAFFORD*      CLOUDY    51  51 100 CALM      30.13S

$$

NCZ024-NYZ072-PAZ021-071-VAZ022-071-240400-
OTHER REGIONAL OBSERVATIONS

CITY           SKY/WX    TMP DP  RH WIND       PRES   REMARKS
NEW YORK CITY  PTCLDY    52  41  66 VRB5      30.15S
PHILADELPHIA   MOCLDY    52  44  74 S5        30.14S
PITTSBURGH     CLOUDY    60  29  30 E5        30.04S
ROANOKE        LGT RAIN  48  47  96 NE6       30.08F FOG
RICHMOND       CLOUDY    53  52  96 E7        30.06F
RALEIGH        CLOUDY    53  51  93 E10G22    29.98F

$$

ANZ530>537-240400-
MARINE OBSERVATIONS

STATION/POSITION TIME  TEMP    WIND        PRES
                       AIR SEA DIR/SP/G
                 (UTC) (F)     (DEG/KT/KT) (MB)
THOMAS PT LIGHT  0300   56 58  110/  9/ 10   N/A
BALT KEY BRIDGE  0242   58     100/  8/  9 1019.4F
COVE POINT       0242   55     110/  8/ 10 1020.1R
LEWISETTA        0242   56 62  100/ 15/ 18 1018.8S
SOLOMONS ISLAND  0242   56 62   90/ 10/ 13   N/A
PINEY POINT      0248          110/ 12/ 14   N/A

$$




USA.gov is the U.S. government's official web portal to all federal, state and local government web resources and services.